Hourly Weather Tarin Kowt

Today, 8 August, Saturday

Time Temperature Precipitation Wind Pressure Humidity
00:00 +25°C° 0 mm 1 mps 613 mmHg 45%
01:00 +22°C° 0 mm 0 mps 613 mmHg 48%
02:00 +22°C° 0 mm 0 mps 613 mmHg 49%
03:00 +21°C° 0 mm 0 mps 612 mmHg 51%
04:00 +21°C° 0 mm 0 mps 612 mmHg 52%
05:00 +25°C° 0 mm 1 mps 613 mmHg 47%
06:00 +27°C° 0 mm 1 mps 614 mmHg 42%
07:00 +29°C° 0 mm 1 mps 615 mmHg 37%
08:00 +30°C° 0 mm 1 mps 615 mmHg 34%
09:00 +32°C° 0 mm 1 mps 615 mmHg 30%
10:00 +33°C° 0 mm 1 mps 616 mmHg 27%
11:00 +36°C° 0 mm 2 mps 616 mmHg 24%
12:00 +37°C° 0 mm 3 mps 616 mmHg 21%
13:00 +38°C° 0 mm 4 mps 616 mmHg 17%
14:00 +37°C° 0 mm 5 mps 615 mmHg 21%
15:00 +38°C° 0 mm 6 mps 615 mmHg 24%
16:00 +36°C° 0 mm 6 mps 614 mmHg 27%
17:00 +34°C° 0 mm 6 mps 614 mmHg 32%
18:00 +32°C° 0 mm 5 mps 614 mmHg 38%
19:00 +29°C° 0 mm 5 mps 614 mmHg 43%
20:00 +27°C° 0 mm 3 mps 614 mmHg 49%
21:00 +26°C° 0 mm 2 mps 614 mmHg 54%
22:00 +24°C° 0 mm 1 mps 614 mmHg 60%
23:00 +24°C° 0 mm 1 mps 613 mmHg 61%

Tomorrow, 9 August, Sunday

Time Temperature Precipitation Wind Pressure Humidity
00:00 +24°C° 0 mm 1 mps 613 mmHg 63%
01:00 +23°C° 0 mm 1 mps 613 mmHg 64%
02:00 +23°C° 0 mm 1 mps 612 mmHg 66%
03:00 +22°C° 0 mm 1 mps 612 mmHg 68%
04:00 +22°C° 0 mm 1 mps 612 mmHg 70%
05:00 +23°C° 0 mm 1 mps 612 mmHg 64%
06:00 +24°C° 0 mm 1 mps 613 mmHg 58%
07:00 +26°C° 0 mm 1 mps 614 mmHg 52%
08:00 +27°C° 0 mm 1 mps 614 mmHg 44%
09:00 +29°C° 0 mm 2 mps 614 mmHg 37%
10:00 +31°C° 0 mm 2 mps 614 mmHg 30%
11:00 +34°C° 0 mm 3 mps 615 mmHg 24%
12:00 +36°C° 0 mm 4 mps 615 mmHg 18%
13:00 +37°C° 0 mm 5 mps 615 mmHg 13%
14:00 +39°C° 0 mm 5 mps 614 mmHg 12%
15:00 +39°C° 0 mm 6 mps 614 mmHg 12%
16:00 +39°C° 0 mm 6 mps 613 mmHg 12%
17:00 +36°C° 0 mm 5 mps 613 mmHg 13%
18:00 +34°C° 0 mm 5 mps 612 mmHg 15%
19:00 +30°C° 0 mm 4 mps 612 mmHg 17%
20:00 +29°C° 0 mm 3 mps 611 mmHg 16%
21:00 +27°C° 0 mm 2 mps 611 mmHg 16%
22:00 +25°C° 0 mm 1 mps 611 mmHg 15%
23:00 +24°C° 0 mm 1 mps 611 mmHg 16%

Day after tomorrow, 10 August, Monday

Time Temperature Precipitation Wind Pressure Humidity
00:00 +23°C° 0 mm 1 mps 610 mmHg 16%
01:00 +22°C° 0 mm 1 mps 610 mmHg 17%
02:00 +22°C° 0 mm 1 mps 610 mmHg 18%
03:00 +22°C° 0 mm 1 mps 610 mmHg 19%
04:00 +20°C° 0 mm 2 mps 610 mmHg 21%
05:00 +23°C° 0 mm 2 mps 611 mmHg 19%
06:00 +25°C° 0 mm 2 mps 612 mmHg 17%
07:00 +27°C° 0 mm 2 mps 613 mmHg 15%
08:00 +29°C° 0 mm 2 mps 614 mmHg 14%
09:00 +31°C° 0 mm 2 mps 614 mmHg 12%
10:00 +34°C° 0 mm 2 mps 615 mmHg 10%
11:00 +35°C° 0 mm 2 mps 614 mmHg 9%
12:00 +36°C° 0 mm 2 mps 614 mmHg 9%
13:00 +38°C° 0 mm 2 mps 614 mmHg 8%
14:00 +38°C° 0 mm 3 mps 614 mmHg 8%
15:00 +38°C° 0 mm 3 mps 614 mmHg 7%
16:00 +38°C° 0 mm 3 mps 613 mmHg 7%
17:00 +35°C° 0 mm 3 mps 613 mmHg 8%
18:00 +31°C° 0 mm 2 mps 612 mmHg 8%
19:00 +28°C° 0 mm 2 mps 611 mmHg 9%
20:00 +26°C° 0 mm 1 mps 611 mmHg 10%
21:00 +25°C° 0 mm 1 mps 611 mmHg 11%
22:00 +22°C° 0 mm 0 mps 611 mmHg 11%
23:00 +23°C° 0 mm 1 mps 611 mmHg 12%

11 August, Tuesday

Time Temperature Precipitation Wind Pressure Humidity
00:00 +23°C° 0 mm 1 mps 611 mmHg 12%
01:00 +23°C° 0 mm 1 mps 611 mmHg 13%
02:00 +22°C° 0 mm 1 mps 611 mmHg 14%
03:00 +22°C° 0 mm 1 mps 611 mmHg 15%
04:00 +21°C° 0 mm 1 mps 611 mmHg 16%
05:00 +23°C° 0 mm 2 mps 612 mmHg 15%
06:00 +25°C° 0 mm 2 mps 613 mmHg 14%
07:00 +28°C° 0 mm 2 mps 614 mmHg 12%
08:00 +30°C° 0 mm 2 mps 614 mmHg 11%
09:00 +32°C° 0 mm 2 mps 615 mmHg 10%
10:00 +35°C° 0 mm 2 mps 615 mmHg 9%
11:00 +36°C° 0 mm 2 mps 615 mmHg 8%
12:00 +37°C° 0 mm 2 mps 615 mmHg 7%
13:00 +39°C° 0 mm 2 mps 615 mmHg 6%
14:00 +39°C° 0 mm 2 mps 614 mmHg 6%
15:00 +39°C° 0 mm 3 mps 614 mmHg 6%
16:00 +40°C° 0 mm 4 mps 614 mmHg 6%
17:00 +36°C° 0 mm 3 mps 613 mmHg 7%
18:00 +33°C° 0 mm 3 mps 612 mmHg 7%
19:00 +29°C° 0 mm 3 mps 611 mmHg 8%
20:00 +28°C° 0 mm 2 mps 612 mmHg 8%
21:00 +27°C° 0 mm 2 mps 612 mmHg 9%
22:00 +25°C° 0 mm 1 mps 612 mmHg 9%
23:00 +25°C° 0 mm 1 mps 612 mmHg 10%

12 August, Wednesday

Time Temperature Precipitation Wind Pressure Humidity
00:00 +22°C° 0 mm 0 mps 611 mmHg 11%
01:00 +21°C° 0 mm 0 mps 611 mmHg 12%
02:00 +21°C° 0 mm 0 mps 611 mmHg 12%
03:00 +20°C° 0 mm 0 mps 611 mmHg 13%
04:00 +22°C° 0 mm 1 mps 611 mmHg 13%
05:00 +24°C° 0 mm 1 mps 613 mmHg 12%
06:00 +26°C° 0 mm 1 mps 614 mmHg 11%
07:00 +29°C° 0 mm 1 mps 615 mmHg 10%
08:00 +31°C° 0 mm 1 mps 615 mmHg 9%
09:00 +33°C° 0 mm 1 mps 616 mmHg 8%
10:00 +34°C° 0 mm 1 mps 616 mmHg 7%
11:00 +37°C° 0 mm 2 mps 616 mmHg 7%
12:00 +38°C° 0 mm 3 mps 616 mmHg 7%
13:00 +40°C° 0 mm 4 mps 616 mmHg 7%
14:00 +40°C° 0 mm 4 mps 615 mmHg 6%
15:00 +40°C° 0 mm 5 mps 615 mmHg 6%
16:00 +40°C° 0 mm 5 mps 615 mmHg 6%
17:00 +37°C° 0 mm 5 mps 614 mmHg 7%
18:00 +34°C° 0 mm 4 mps 613 mmHg 8%
19:00 +30°C° 0 mm 3 mps 613 mmHg 9%
20:00 +29°C° 0 mm 3 mps 613 mmHg 10%
21:00 +28°C° 0 mm 2 mps 613 mmHg 10%
22:00 +26°C° 0 mm 2 mps 613 mmHg 11%
23:00 +25°C° 0 mm 2 mps 613 mmHg 12%

13 August, Thursday

Time Temperature Precipitation Wind Pressure Humidity
00:00 +24°C° 0 mm 1 mps 612 mmHg 13%
01:00 +23°C° 0 mm 1 mps 612 mmHg 14%
02:00 +23°C° 0 mm 1 mps 612 mmHg 15%
03:00 +22°C° 0 mm 1 mps 611 mmHg 15%
04:00 +21°C° 0 mm 1 mps 611 mmHg 16%
05:00 +23°C° 0 mm 1 mps 612 mmHg 14%
06:00 +26°C° 0 mm 2 mps 614 mmHg 12%
07:00 +28°C° 0 mm 2 mps 615 mmHg 10%
08:00 +30°C° 0 mm 2 mps 615 mmHg 9%
09:00 +32°C° 0 mm 2 mps 616 mmHg 8%
10:00 +35°C° 0 mm 2 mps 616 mmHg 6%
11:00 +37°C° 0 mm 2 mps 616 mmHg 6%
12:00 +38°C° 0 mm 2 mps 616 mmHg 5%
13:00 +40°C° 0 mm 3 mps 616 mmHg 4%
14:00 +40°C° 0 mm 3 mps 615 mmHg 4%
15:00 +40°C° 0 mm 3 mps 615 mmHg 3%
16:00 +40°C° 0 mm 3 mps 614 mmHg 3%
17:00 +37°C° 0 mm 3 mps 614 mmHg 4%
18:00 +34°C° 0 mm 4 mps 613 mmHg 5%
19:00 +30°C° 0 mm 4 mps 612 mmHg 7%
20:00 +29°C° 0 mm 3 mps 612 mmHg 8%
21:00 +28°C° 0 mm 2 mps 612 mmHg 9%
22:00 +26°C° 0 mm 2 mps 612 mmHg 11%
23:00 +25°C° 0 mm 1 mps 612 mmHg 11%
Show more